Content
SEND FEEDBACK

Daily
Averages
Monthly
Summary
United States of America

SALEM, NEW YORK


Home > North America > United States > New York
Elevation: 670 feet     Latitude: 43 10N     Longitude: 073 19W

WEATHER
 
SELECT A DAY
Number of Records: 178,954;   Date Range: 12/9/98 - 8/12/14
 
SHARE

PRINT THIS DATA

[ ← Previous Day ]
WEATHER ALMANAC - FEBRUARY 13, 2013
[ Next Day → ]
[ °C ]   °F
Weather ElementAverageHighLow
Temperature30.9 °F36 °F (2:54 pm)27 °F (7:54 pm)
Dewpoint20.6 °F23 °F (1:54 am)17.1 °F (3:54 pm)
Humidity66.1 %75 % (3:54 am)46 % (3:54 pm)
Barometer29.81 in29.88 in (3:54 am)29.72 in (11:54 pm)
Wind Speed3.3 mph8.1 mph (1:54 am)
Weather ElementAverage
Visibility10 mi
Wind DirectionESE (106.1 °)

Weather ElementTotal
Precipitation---
Heating Degree Days33.5 (Base 65)
Averaged from 23 records on February 13, 2013
WEATHER CONDITIONS BREAKOUT
WIND DIRECTION BREAKOUT
WEATHER BY HOUR - FEBRUARY 13, 2013
[ °C ]   °F
Local TimeTemperatureDewpointHumidityBarometerVisibilityWind DirectionWind SpeedGust SpeedPrecipitationEventsConditions
1:54 AM30.9 °F23.0 °F72 %29.87 in10.0 miSW (230°)8.1 mphOvercast
2:54 AM30.9 °F23.0 °F72 %29.87 in10.0 miVariable6.9 mphOvercast
3:54 AM30.0 °F23.0 °F75 %29.88 in10.0 miWSW (240°)3.5 mphOvercast
4:54 AM30.0 °F23.0 °F75 %29.88 in10.0 miWest (280°)6.9 mphOvercast
5:54 AM30.0 °F23.0 °F75 %29.86 in10.0 miWest (270°)4.6 mphOvercast
6:54 AM30.0 °F23.0 °F75 %29.87 in10.0 miVariable3.5 mphOvercast
7:54 AM30.9 °F23.0 °F72 %29.87 in10.0 miWest (260°)3.5 mphOvercast
8:54 AM30.9 °F23.0 °F72 %29.87 in10.0 miVariable4.6 mphOvercast
9:54 AM32.0 °F23.0 °F69 %29.86 in10.0 miWest (260°)6.9 mphOvercast
10:54 AM33.1 °F21.9 °F64 %29.85 in10.0 miVariable4.6 mphOvercast
11:54 AM34.0 °F21.0 °F59 %29.83 in10.0 miWNW (290°)5.8 mphOvercast
12:54 PM34.0 °F19.0 °F54 %29.82 in10.0 miSW (220°)5.8 mphOvercast
1:54 PM34.0 °F18.0 °F52 %29.80 in10.0 miWest (270°)6.9 mphOvercast
2:54 PM36.0 °F18.0 °F48 %29.78 in10.0 miCalmMostly Cloudy
3:54 PM36.0 °F17.1 °F46 %29.77 in10.0 miCalmClear
4:54 PM33.1 °F17.1 °F52 %29.75 in10.0 miCalmClear
5:54 PM28.0 °F18.0 °F66 %29.74 in10.0 miCalmClear
6:54 PM28.0 °F18.0 °F66 %29.75 in10.0 miCalmClear
7:54 PM27.0 °F19.0 °F72 %29.74 in10.0 miCalmClear
8:54 PM28.0 °F19.0 °F69 %29.76 in10.0 miESE (120°)3.5 mphClear
9:54 PM28.0 °F19.0 °F69 %29.75 in10.0 miCalmMostly Cloudy
10:54 PM28.0 °F21.0 °F75 %29.74 in10.0 miCalmOvercast
11:54 PM28.0 °F19.9 °F72 %29.72 in10.0 miCalmOvercast
Hourly data recorded from KDDH, located miles away from Salem, New York







STORIES FROM OUR PARTNERS